Temp
11 11 10 10 10 11 11 11 9 5 5 7 7 6 6 5 4 4 3 3 3 3 3 3 3 2 2 2 2 2 2 2 2 3 3 3 3 4
9 9 9 9 9 9 9 9 9 8 4 7 6 6 5 5 3 3 3 3 3 3 3 3 2 2 2 2 2 2 2 2 2 2 2 2 3 3
8 9 8 8 8 8 7 7 7 7 5 5 5 4 4 3 3 2 2 2 2 2 2 2 2 2 2 2 1 1 2 1 1 1 1 2 2 2
7 7 7 7 7 6 6 5 5 5 4 3 3 3 3 3 2 2 2 2 2 2 2 2 2 2 2 1 1 2 2 1 1 1 1 1 1 1
7 7 6 6 5 5 5 4 4 4 3 3 3 3 3 2 2 2 2 2 2 1 2 2 2 2 2 2 2 2 1 1 1 1 1 1 1 1
6 6 6 5 5 5 4 4 3 3 3 2 2 2 2 2 2 2 2 1 1 1 1 1 1 1 1 1 1 1 1 1 1 0 0 0 0 0
5 5 5 5 5 4 3 3 3 2 2 2 2 1 1 1 1 1 1 1 1 1 1 1 0 0 0 0 0 0 1 1 0 0 -0 -0 -0 -0
4 4 5 4 3 3 3 2 2 2 1 1 1 0 0 1 1 1 0 -0 -1 0 0 -0 -0 -0 -0 -0 -0 0 0 0 0 -0 -1 -1 -1 -1
4 3 2 2 2 2 2 1 1 1 0 -0 -0 -0 -0 -0 -0 -1 -1 -1 -1 -1 -1 -1 -1 -1 -1 -1 -1 -0 -0 -0 -0 -0 -1 -1 -1 -1
2 1 1 1 1 1 1 0 0 0 0 0 0 -0 -0 -1 -1 -1 -1 -1 -2 -1 -1 -2 -2 -2 -1 -1 -1 -1 -1 -1 -0 -1 -1 -1 -1 -1
0 0 1 1 1 1 0 -0 -0 0 0 0 -0 -0 -1 -1 -1 -1 -1 -2 -3 -2 -2 -3 -2 -3 -3 -2 -1 -2 -2 -2 -2 -1 -1 -2 -2 -2
-1 -0 1 1 -0 -0 -0 -0 -0 -0 -0 -0 -0 -1 -1 -1 -1 -2 -3 -4 -4 -3 -3 -4 -4 -4 -4 -3 -2 -2 -2 -2 -2 -2 -2 -3 -3 -3
-0 0 0 -0 -1 -1 -1 -1 -1 -1 -1 -1 -2 -1 -2 -2 -2 -3 -4 -5 -5 -5 -5 -5 -5 -4 -4 -4 -4 -4 -3 -3 -3 -3 -3 -3 -3 -3
1 0 -1 -1 -1 -2 -2 -2 -2 -2 -2 -2 -2 -2 -3 -3 -3 -4 -5 -5 -5 -5 -5 -5 -5 -4 -4 -4 -4 -4 -4 -4 -4 -4 -3 -3 -3 -4
0 -0 -1 -1 -2 -2 -2 -2 -3 -3 -3 -3 -3 -3 -4 -4 -4 -5 -5 -5 -6 -5 -5 -4 -5 -5 -5 -5 -5 -5 -5 -5 -5 -4 -4 -4 -4 -4
-1 -1 -1 -2 -2 -2 -2 -2 -3 -3 -3 -3 -4 -4 -4 -5 -5 -5 -5 -5 -5 -5 -5 -4 -5 -5 -5 -5 -5 -5 -5 -5 -5 -5 -4 -4 -5 -5
-1 -2 -2 -2 -2 -2 -2 -2 -3 -3 -3 -4 -5 -5 -5 -5 -5 -5 -5 -5 -6 -5 -5 -5 -5 -5 -5 -5 -5 -5 -5 -5 -5 -4 -5 -5 -5 -5
-2 -2 -2 -2 -2 -2 -2 -3 -3 -3 -4 -4 -4 -5 -5 -6 -6 -6 -6 -6 -5 -5 -6 -5 -6 -6 -6 -5 -4 -4 -4 -4 -5 -5 -5 -6 -5 -5
-2 -2 -2 -2 -2 -3 -3 -3 -3 -4 -4 -5 -5 -5 -6 -6 -6 -6 -6 -6 -6 -6 -6 -6 -6 -7 -6 -6 -5 -4 -5 -5 -5 -6 -6 -6 -6 -6
-3 -3 -2 -3 -3 -3 -3 -4 -4 -4 -5 -5 -6 -6 -6 -6 -7 -6 -7 -6 -6 -6 -6 -6 -6 -6 -7 -6 -6 -6 -5 -5 -5 -6 -6 -6 -5 -5
-3 -3 -3 -3 -4 -4 -4 -4 -5 -5 -6 -6 -6 -7 -7 -7 -7 -7 -7 -7 -6 -6 -6 -7 -6 -6 -6 -6 -6 -5 -5 -5 -5 -5 -6 -6 -5 -5
-3 -3 -4 -4 -4 -5 -5 -5 -6 -6 -7 -7 -7 -7 -7 -7 -8 -8 -8 -8 -8 -7 -7 -7 -6 -6 -6 -7 -6 -6 -6 -5 -5 -5 -6 -5 -6 -5
-4 -4 -5 -5 -5 -5 -6 -6 -7 -7 -8 -8 -8 -8 -8 -8 -8 -8 -8 -8 -8 -7 -7 -7 -7 -6 -6 -6 -6 -6 -6 -5 -6 -6 -6 -5 -5 -4
Height
807 810 813 816 819 822 824 828 833 844 846 849 850 849 848 850 848 847 846 846 845 844 844 843 840 838 836 834 831 828 828 829 825 819 817 816 816 813
806 809 813 817 818 822 824 827 831 835 843 845 847 848 846 846 846 845 845 845 842 841 842 841 839 837 835 833 830 829 828 824 820 818 813 813 811 807
806 809 813 815 820 821 824 828 830 834 838 842 844 847 844 843 843 843 842 843 840 839 838 836 835 833 831 829 827 825 824 821 819 811 807 807 806 805
806 810 814 815 820 821 823 829 831 832 835 839 841 841 842 841 841 840 840 840 838 837 837 834 831 829 827 825 822 818 818 816 816 813 805 802 800 799
806 811 815 817 820 821 823 827 829 832 835 836 837 839 839 839 838 837 837 837 835 835 833 831 829 828 827 825 824 821 818 814 808 808 804 801 798 795
810 811 815 819 820 821 823 825 827 831 832 830 833 834 837 837 835 835 835 834 831 831 829 829 827 825 823 818 816 813 813 810 804 805 799 796 794 791
808 812 815 816 820 823 823 824 827 830 829 830 832 833 835 834 832 831 830 831 830 829 826 825 823 823 820 816 812 809 809 809 802 800 798 793 790 785
806 809 813 817 820 821 822 824 826 827 829 830 831 831 830 831 830 829 830 827 826 825 824 822 818 814 810 809 809 807 804 802 800 796 792 789 785 780
805 809 813 816 818 820 820 823 824 826 828 827 828 828 829 830 832 829 827 826 824 820 819 815 814 808 805 803 803 800 799 795 795 791 787 784 779 774
805 810 812 815 816 820 823 824 823 824 825 824 826 827 828 828 827 827 823 822 820 817 814 811 807 802 800 799 797 794 793 792 789 785 782 778 773 767
807 808 809 811 816 819 821 820 821 821 823 823 825 825 826 825 824 823 822 821 818 816 814 807 804 801 799 794 791 791 789 786 783 779 777 771 766 760
804 807 807 810 816 818 819 817 819 820 821 822 823 823 822 821 821 819 819 819 819 816 812 809 806 803 795 790 789 787 783 780 777 774 770 764 760 755
803 804 808 811 814 814 815 817 817 817 819 819 819 819 819 819 817 816 817 816 815 813 809 811 804 800 798 789 784 781 779 774 771 767 762 757 754 750
800 804 806 808 811 812 813 815 815 816 817 817 815 815 816 815 814 815 815 814 814 811 808 807 803 797 793 787 782 778 774 769 766 760 755 750 745 740
799 801 804 806 808 809 812 812 813 813 814 814 813 814 813 813 811 811 810 809 813 805 803 801 799 795 790 785 779 775 770 764 759 754 749 743 737 732
797 800 803 806 807 809 809 809 809 810 811 812 813 812 811 811 808 810 809 808 806 804 797 796 795 791 784 781 777 770 766 762 754 748 743 736 730 726
795 799 801 804 805 808 808 807 804 805 807 809 811 810 809 808 807 808 806 805 800 798 792 791 787 784 780 776 770 765 760 755 750 744 738 730 723 718
794 796 799 801 803 804 803 803 803 804 803 806 806 806 809 810 802 803 803 800 795 794 791 787 783 778 774 769 766 759 756 750 744 739 735 729 716 710
792 795 797 797 798 798 800 799 801 799 800 800 802 806 806 806 799 799 799 794 792 791 787 784 780 777 770 764 760 759 753 746 740 733 730 725 717 706
790 792 793 793 794 794 795 795 798 798 798 798 801 804 803 800 796 795 793 792 790 787 783 780 776 773 769 762 754 749 748 743 738 731 724 718 712 705
786 787 787 788 789 791 792 794 796 796 796 797 798 798 797 795 793 792 791 789 787 783 780 776 772 769 765 759 752 746 741 740 737 731 724 717 706 696
780 782 783 785 787 789 791 793 793 793 793 793 793 793 792 791 790 789 788 786 783 779 775 771 767 763 759 755 750 744 737 733 730 725 721 718 710 698
777 780 783 784 786 788 789 788 788 788 788 789 789 788 788 787 786 785 783 781 778 775 771 767 763 759 755 752 748 741 736 731 725 717 710 708 703 696
Wind_Speed
26 23 21 19 17 17 17 16 11 3 2 6 4 7 6 9 8 10 13 11 13 13 13 13 15 16 17 16 15 15 18 20 20 19 19 20 22 22
27 26 23 21 20 17 16 14 10 7 3 4 4 5 8 10 7 10 11 13 12 11 12 14 15 17 17 17 16 16 18 18 18 19 19 20 20 21
27 26 24 21 20 18 15 12 11 8 5 3 3 4 7 8 12 12 11 12 12 13 14 14 16 17 17 17 16 16 18 19 19 17 17 18 20 23
27 25 23 20 18 16 13 11 9 6 5 5 5 5 9 8 11 9 13 10 12 11 15 15 15 16 17 17 19 19 19 21 21 22 21 22 24 25
25 23 21 19 18 15 12 9 6 5 4 3 4 8 8 10 11 11 11 9 15 14 15 16 15 16 18 21 21 21 20 19 17 21 23 25 27 26
20 20 19 15 14 11 9 8 6 6 4 3 5 6 10 11 11 12 13 14 17 17 17 16 15 17 19 22 21 22 20 18 20 21 23 23 23 24
21 18 15 12 9 9 8 6 6 4 2 2 5 7 10 9 10 11 15 17 19 19 18 19 21 20 24 24 22 22 20 23 21 21 20 22 24 25
19 15 12 10 8 5 5 5 6 5 6 6 5 5 7 11 13 14 14 14 8 16 12 25 23 23 23 23 23 24 23 22 24 20 21 24 26 27
16 12 9 9 8 7 5 4 3 4 5 4 7 7 10 11 13 15 17 17 20 24 23 22 23 22 22 24 26 23 24 23 22 20 24 27 29 29
13 15 11 8 7 7 6 5 4 5 4 5 8 11 13 14 15 17 17 18 20 17 16 13 24 25 24 26 30 24 21 20 21 24 26 30 30 31
15 12 11 11 10 8 8 6 4 3 4 5 7 10 10 12 13 15 15 15 13 16 21 16 14 26 29 25 15 17 15 21 26 24 27 30 29 28
13 13 12 11 10 8 7 4 4 4 4 8 10 11 12 9 8 6 7 10 12 9 6 17 18 18 10 19 9 25 26 28 24 24 27 27 25 26
16 14 12 13 10 7 6 7 5 5 9 11 11 11 9 7 6 9 11 13 14 14 19 18 16 21 14 18 19 24 25 25 30 28 28 26 25 25
15 13 12 12 9 7 6 6 5 7 10 10 8 6 5 9 13 19 17 15 16 19 23 23 22 20 21 19 24 24 28 30 26 28 26 32 31 29
15 13 12 10 8 7 6 5 5 9 6 5 4 8 12 14 15 17 18 18 20 21 19 16 17 23 21 23 23 23 27 26 27 21 33 33 33 34
12 12 10 9 8 7 7 7 5 3 5 9 9 10 10 13 14 16 19 21 24 26 21 19 19 21 24 26 24 25 25 16 26 32 32 36 31 31
12 11 12 10 9 9 9 7 5 6 6 6 6 9 13 14 17 19 20 23 22 21 23 24 25 25 25 26 26 28 27 24 23 30 32 33 34 30
13 12 13 13 12 10 8 6 5 6 6 8 11 13 16 18 19 21 19 20 20 21 22 25 26 28 23 22 19 24 22 26 29 28 30 26 34 35
12 12 11 12 10 8 7 7 8 8 7 10 13 16 15 19 18 19 20 23 19 19 24 23 24 23 9 9 21 16 22 29 29 30 27 27 30 37
12 10 9 7 6 7 7 7 8 8 9 13 16 17 17 17 18 15 18 19 23 22 19 22 24 24 17 12 25 30 19 23 25 29 31 33 33 34
11 10 7 7 7 8 8 10 11 11 13 15 14 14 16 15 15 18 19 19 19 18 20 22 26 22 26 27 19 22 27 24 21 25 31 30 31 33
7 7 7 8 9 10 12 13 14 14 15 14 14 14 15 14 18 18 19 18 19 21 23 25 26 26 26 21 21 24 24 30 32 29 26 23 24 11
8 10 11 11 12 13 13 14 14 14 13 13 14 14 15 16 16 17 18 19 20 21 22 24 26 25 25 23 22 22 23 27 28 32 37 29 28 29
Wind_Direction
161 161 155 147 146 146 148 157 145 152 159 172 152 186 239 304 322 328 331 333 319 323 318 321 326 330 331 330 328 328 330 327 327 328 328 326 321 320
159 154 145 141 135 135 134 136 137 130 140 156 154 240 288 312 324 313 321 316 330 325 318 321 323 324 327 328 329 325 322 323 323 322 323 320 318 317
153 149 142 142 136 134 132 132 132 144 140 152 168 282 313 322 323 329 334 326 323 318 315 316 321 325 327 326 322 321 324 325 320 320 319 316 317 318
151 146 142 141 140 138 136 140 142 153 159 199 247 309 315 319 320 324 327 336 330 326 315 315 320 324 321 324 324 323 322 324 320 323 327 322 317 316
151 150 147 149 145 147 143 144 147 159 193 226 283 305 309 321 318 315 313 319 318 323 321 315 317 318 312 321 320 321 318 316 321 317 318 317 314 313
150 148 148 152 146 145 154 156 164 189 203 238 283 309 308 306 309 311 317 326 327 315 317 311 306 309 306 314 312 314 313 310 318 314 314 311 308 307
147 146 150 146 155 167 168 162 185 201 226 260 272 279 296 312 338 332 320 316 311 310 304 303 312 306 307 313 313 316 313 311 313 314 313 315 311 307
148 148 152 166 178 188 194 201 221 224 233 243 266 291 302 315 316 311 308 315 310 314 304 305 311 301 312 319 314 310 307 306 308 307 313 317 315 310
155 153 157 173 181 199 209 220 227 230 239 262 280 293 304 313 313 311 311 310 304 306 305 300 314 313 317 312 308 304 301 300 303 301 311 313 314 311
170 178 193 193 182 198 204 208 209 234 252 263 281 294 289 291 297 301 303 301 301 305 315 307 312 315 315 304 301 303 300 299 301 302 305 311 310 310
185 185 177 180 203 212 211 211 226 253 279 277 290 284 283 296 303 302 302 310 313 317 319 321 322 324 314 309 308 312 304 303 303 302 306 311 312 311
182 186 185 188 200 203 210 200 244 277 258 257 274 287 297 308 304 303 327 345 339 314 341 334 315 325 313 304 294 311 317 311 305 303 307 311 311 312
186 187 191 192 200 202 207 222 243 281 276 284 283 296 307 300 284 302 309 325 325 302 309 312 296 293 274 288 303 307 312 306 305 308 315 314 311 308
187 189 190 185 193 198 210 236 262 282 277 278 285 300 310 311 314 316 322 323 309 301 303 299 287 295 294 295 303 308 308 307 306 305 314 318 319 313
184 185 185 186 193 203 224 246 252 279 278 277 282 298 307 307 309 312 316 313 306 308 314 307 294 303 304 294 290 300 307 305 302 307 321 318 314 312
171 174 194 206 217 215 234 244 257 256 272 293 292 298 304 312 317 315 312 310 305 306 322 318 303 305 297 292 289 296 300 294 301 315 318 315 311 309
179 183 190 205 212 224 235 237 241 252 275 277 288 305 313 314 310 309 300 298 294 301 316 320 322 321 311 296 284 286 291 294 299 311 315 313 313 312
182 192 207 209 213 230 246 246 249 253 260 264 294 302 302 302 299 299 303 307 299 306 311 318 322 321 316 308 298 290 308 310 311 313 317 311 312 315
203 208 226 208 227 237 244 254 266 278 279 290 290 281 290 294 298 298 309 312 299 304 307 312 316 317 309 309 316 312 309 312 320 316 314 310 306 307
208 215 221 211 225 244 261 271 271 276 282 289 286 283 285 298 296 300 314 309 309 305 305 315 317 319 300 304 309 308 310 313 309 306 309 312 306 306
215 215 232 247 260 267 262 262 272 278 278 271 273 282 291 298 302 308 308 304 303 313 311 310 317 317 315 318 313 307 310 320 314 309 308 309 310 312
209 231 248 254 254 254 255 264 262 266 274 276 280 284 289 289 299 298 301 303 305 310 311 316 323 326 326 313 307 303 301 322 327 328 319 308 305 303
241 243 246 247 246 245 255 256 262 270 271 275 279 283 289 290 294 296 297 300 304 308 311 312 320 324 320 315 314 313 311 321 325 327 327 339 332 331